San Antonio, TX

5:17 PM CST on December 18, 2017 (GMT -0600)
San Antonio International

Weather History for KSAT - October, 2010

Change the Weather History Date:

Thursday, October 14, 2010

  Actual Average Record
Temperature  
Mean Temperature 67 °F 72 °F  
Max Temperature 80 °F 83 °F 95 °F (2015)
Min Temperature 53 °F 61 °F 39 °F (1977)
Degree Days  
Heating Degree Days 0 1  
Month to date heating degree days 0 3  
Since 1 July heating degree days 0 5  
Cooling Degree Days 2 7  
Month to date cooling degree days 69 123  
Year to date cooling degree days 2928 2957  
Growing Degree Days 18 (Base 50)    
Moisture  
Dew Point 40 °F    
Average Humidity 39    
Maximum Humidity 61    
Minimum Humidity 16    
Precipitation  
Precipitation 0.00 in 0.14 in 1.19 in (1920)
Month to date precipitation 0.09 1.84  
Year to date precipitation 36.42 25.81  
Snow  
Snow 0.00 in - - ()
Month to date snowfall 0.0  
Since 1 July snowfall 0.0  
Since 1 September snowfall 0.0  
Snow Depth 0.00 in    
Sea Level Pressure  
Sea Level Pressure 30.23 in    
Wind  
Wind Speed 7 mph (North)    
Max Wind Speed 14 mph    
Max Gust Speed 21 mph    
Visibility 10 miles    
Events      
T = Trace of Precipitation, MM = Missing Value Source: NWS Daily Summary

Daily Weather History Graph

Daily Weather History Graph

Search for Another Location

Airport or City:

Trip Planner

Search our weather history database for the weather conditions in past years. The results will help you decide how hot, cold, wet, or windy it might be!

Date:

Astronomy

Oct. 14, 2010 Rise Set
Actual Time 7:34 AM CDT 7:04 PM CDT
Civil Twilight 7:10 AM CDT 7:28 PM CDT
Nautical Twilight 6:43 AM CDT 7:56 PM CDT
Astronomical Twilight 6:15 AM CDT 8:23 PM CDT
Moon 2:18 PM CDT (10/14) 12:05 AM CDT (10/14)
Length of Visible Light 12h 17m
Length of Day
11h 29m
Waxing Crescent, 48% of the Moon is Illuminated
Oct 14
Waxing Crescent
Oct 14
First Quarter
Oct 22
Full
Oct 30
Last Quarter
Nov 5
New

Hourly Weather History & Observations

Time (CDT) Temp. Dew Point Humidity Pressure Visibility Wind Dir Wind Speed Gust Speed Precip Events Conditions
12:53 AM 66.0 °F 51.1 °F 59% 30.24 in 10.0 mi North 6.9 mph - N/A   Clear
1:53 AM 64.9 °F 50.0 °F 58% 30.24 in 10.0 mi North 8.1 mph - N/A   Clear
2:53 AM 62.1 °F 48.0 °F 60% 30.24 in 10.0 mi North 6.9 mph - N/A   Clear
3:53 AM 62.1 °F 46.0 °F 56% 30.24 in 10.0 mi North 8.1 mph - N/A   Clear
4:53 AM 61.0 °F 43.0 °F 52% 30.25 in 10.0 mi North 8.1 mph - N/A   Clear
5:53 AM 59.0 °F 42.1 °F 53% 30.26 in 10.0 mi North 5.8 mph - N/A   Clear
6:53 AM 55.0 °F 43.0 °F 64% 30.27 in 10.0 mi NW 5.8 mph - N/A   Clear
7:53 AM 55.0 °F 43.0 °F 64% 30.29 in 10.0 mi NNW 5.8 mph - N/A   Clear
8:53 AM 63.0 °F 41.0 °F 45% 30.30 in 10.0 mi North 9.2 mph - N/A   Clear
9:53 AM 66.0 °F 39.9 °F 38% 30.32 in 10.0 mi NE 9.2 mph - N/A   Clear
10:53 AM 69.1 °F 39.0 °F 33% 30.32 in 10.0 mi NNE 9.2 mph - N/A   Clear
11:53 AM 73.0 °F 37.9 °F 28% 30.30 in 10.0 mi North 11.5 mph - N/A   Clear
12:53 PM 75.0 °F 37.9 °F 26% 30.27 in 10.0 mi North 5.8 mph - N/A   Clear
1:53 PM 77.0 °F 37.0 °F 24% 30.23 in 10.0 mi North 9.2 mph - N/A   Clear
2:53 PM 79.0 °F 35.1 °F 20% 30.19 in 10.0 mi NNE 12.7 mph - N/A   Clear
3:53 PM 80.1 °F 30.9 °F 17% 30.17 in 10.0 mi NNE 11.5 mph - N/A   Clear
4:53 PM 80.1 °F 32.0 °F 17% 30.16 in 10.0 mi NNE 10.4 mph - N/A   Clear
5:53 PM 78.1 °F 32.0 °F 19% 30.15 in 10.0 mi NNE 9.2 mph - N/A   Clear
6:53 PM 73.9 °F 33.1 °F 22% 30.15 in 10.0 mi NE 4.6 mph - N/A   Clear
7:53 PM 70.0 °F 34.0 °F 27% 30.15 in 10.0 mi NNE 4.6 mph - N/A   Clear
8:53 PM 66.0 °F 37.9 °F 36% 30.17 in 10.0 mi Calm Calm - N/A   Clear
9:53 PM 61.0 °F 42.1 °F 50% 30.18 in 10.0 mi WNW 4.6 mph - N/A   Clear
10:53 PM 55.9 °F 42.1 °F 60% 30.19 in 10.0 mi WNW 4.6 mph - N/A   Clear
11:53 PM 55.9 °F 41.0 °F 57% 30.19 in 10.0 mi WNW 5.8 mph - N/A   Clear